カタログに戻る

BS-3B

YURI 3B

運用中通信GEO
NORAD 21668·PAYLOAD·🇯🇵 Japan

打ち上げ Aug 25, 1991 から Tanegashima Space Center

Loading…

TLE

最新Source: Space-Track

元期: Sep 14, 2026, 06:32 UTC

1 21668U 91060A   26257.27241381 -.00000098  00000-0  00000-0 0  9997
2 21668  13.3994 356.4714 0006058 194.1994 183.9300  0.98791579130193

AllMySatでBS-3Bをリアルタイム追跡

Download on the App Store